Regional Weather Roundup
Issued by NWS

Home | Current Version | Previous Version | Graphics & Text | Print | Product List | Glossary On
Versions: 1 2 3 4 5 6 7 8 9 10 11 12 13 14 15 16 17 18 19 20 21 22 23 24 25 26 27 28 29 30 31 32 33 34 35 36 37 38 39 40 41 42 43 44 45 46 47 48 49 50
000
ASUS43 KMKX 110410
RWRWI

WISCONSIN REGIONAL WEATHER ROUNDUP
NATIONAL WEATHER SERVICE MILWAUKEE/SULLIVAN WI
1000 PM CST SUN DEC 10 2017

NOTE: "FAIR" INDICATES FEW OR NO CLOUDS BELOW 12,000 FEET WITH NO
SIGNIFICANT WEATHER AND/OR OBSTRUCTIONS TO VISIBILITY.

WIZ001-002-006>008-014>016-023>028-110500-
NORTHWEST WISCONSIN

CITY           SKY/WX    TMP DP  RH WIND       PRES   REMARKS
SUPERIOR ARPT  CLOUDY    10   8  91 CALM      29.99F
ASHLAND        MOCLDY     8   5  87 SW5       30.01S WCI   0
HAYWARD        CLOUDY    10   6  84 N3        29.97F
SIREN          CLOUDY    11   8  88 CALM      29.99S
CUMBERLAND     CLOUDY    10   7  85 CALM      29.97F
RICE LAKE      CLOUDY    11   9  92 CALM      30.00F FOG
CHETEK           N/A     10   8  91 MISG      30.00F
LADYSMITH      CLOUDY    13  11  90 CALM      29.99F
EAU CLAIRE     CLOUDY    17  14  88 CALM      30.01F
MENOMONIE      CLOUDY    19  17  90 CALM      30.01F
NEW RICHMOND   CLOUDY    17  15  92 CALM      30.00S
OSCEOLA        CLOUDY    16  15  95 CALM      30.02S
$$

WIZ003>005-009-010-017-018-110500-
NORTH CENTRAL WISCONSIN

CITY           SKY/WX    TMP DP  RH WIND       PRES   REMARKS
MANITOWISH WTR CLOUDY     6   6 100 CALM      29.94S
ARBOR VITAE    CLOUDY    14  10  86 CALM      29.94F
WOODRUFF       CLOUDY    14  10  86 CALM      29.94F
RHINELANDER    CLOUDY    12   7  80 W6        29.95F WCI   3
EAGLE RIVER    CLOUDY    15  10  81 CALM      29.93F
LAND O LAKES   CLOUDY    15  12  88 CALM      29.95F
PHILLIPS       CLOUDY     7   6  98 CALM      29.97S
TOMAHAWK       CLOUDY     9   6  88 CALM      29.97F
MEDFORD        CLOUDY    14  11  87 CALM      29.98S
MERRILL        CLOUDY    13   9  83 CALM      29.99F
$$

WIZ029-030-035-036-043>047-110500-
CENTRAL WISCONSIN

CITY           SKY/WX    TMP DP  RH WIND       PRES   REMARKS
WAUSAU         CLOUDY    20  11  68 CALM      29.98F
MOSINEE        CLOUDY    19  14  79 SW3       30.00F
MARSHFIELD     CLOUDY    16  12  84 SW3       29.99F
STEVENS POINT  CLOUDY    20  13  73 CALM      30.01F
WAUPACA        CLOUDY    26  14  62 W3        30.04F
WAUTOMA        CLOUDY    23  15  71 CALM      30.04F
WISC RAPIDS    CLOUDY    21  13  71 CALM      30.04F
CAMP DOUGLAS   CLOUDY    22  19  85 CALM      30.04F
$$

WIZ011>013-019>022-031-037>040-048>050-110500-
NORTHEAST WISCONSIN

CITY           SKY/WX    TMP DP  RH WIND       PRES   REMARKS
ANTIGO         FLURRIES  17  12  81 CALM      29.97F
SHAWANO        CLOUDY    24  16  70 CALM      30.03F
OCONTO         PTCLDY    17   9  71 NE5       30.05F WCI  10
STURGEON BAY   CLOUDY    21  11  65 N9        30.05S WCI  11
GREEN BAY      CLOUDY    23  15  71 NE8       30.04F WCI  14
MANITOWOC      CLOUDY    22  14  71 N3        30.05F
APPLETON       CLOUDY    25  12  58 CALM      30.02F
CLINTONVILLE   CLOUDY    25  16  68 CALM      30.03F
OSHKOSH        CLOUDY    25  17  72 W6        30.04S WCI  18
$$

WIZ032>034-041-042-053>061-110500-
SOUTHWEST WISCONSIN

CITY           SKY/WX    TMP DP  RH WIND       PRES   REMARKS
LA CROSSE      CLOUDY    28  20  71 CALM      30.05F
SPARTA         CLOUDY    25  20  81 CALM      30.05F
VIROQUA        CLOUDY    25  20  83 CALM      30.03S
BOSCOBEL       CLOUDY    27  19  72 CALM      30.08F
PRAIRIE DU CHI PTCLDY    22  18  85 E3        30.07F
PLATTEVILLE    CLOUDY    24  21  90 CALM      30.06S
$$

WIZ056-057-062-063-064-067-068-110500-
SOUTH CENTRAL WISCONSIN

CITY           SKY/WX    TMP DP  RH WIND       PRES   REMARKS
REEDSBURG      CLOUDY    25  17  70 NW3       30.05S
BARABOO/DELLS  CLOUDY    24  17  73 NW3       30.05S
LONE ROCK      CLOUDY    27  20  75 CALM      30.07F
MINERAL POINT  PTCLDY    27  23  86 N3        30.04F
MADISON        CLOUDY    26  18  71 CALM      30.05S
MIDDLETON      CLOUDY    25  19  78 W5        30.06S WCI  19
WATERTOWN      CLOUDY    25  17  72 NW5       30.06S WCI  19
MONROE         PTCLDY    25  19  80 NW3       30.05S
JANESVILLE     CLOUDY    27  19  74 CALM      30.07R
$$

WIZ051-052-058>065-066-070>072-110500-
SOUTHEAST WISCONSIN

CITY           SKY/WX    TMP DP  RH WIND       PRES   REMARKS
MILWAUKEE      CLOUDY    28  17  63 NW9       30.07R WCI  19
WAUKESHA       CLOUDY    25  16  68 NW8       30.07S WCI  16
MILWAUKEE/TIMM CLOUDY    27  16  63 NW7       30.07S WCI  19
RACINE         CLOUDY    27  17  66 NW7       30.08F WCI  19
BURLINGTON     CLOUDY    34  29  83 NW8       30.07R WCI  27
KENOSHA        CLOUDY    28  17  63 NW6       30.07S WCI  22
FOND DU LAC    CLOUDY    26  16  65 W7        30.05S WCI  18
SHEBOYGAN      CLOUDY    25  19  78 NE3       30.04F
WEST BEND      CLOUDY    27  19  74 NW3       30.05S
JUNEAU         CLOUDY    24  18  75 CALM      30.06S
$$

LSZ147-162-110500-
LAKE SUPERIOR

STATION/POSITION TIME  TEMP    WIND        PRES    WAVE
                       AIR SEA DIR/SP/G            HT/PER
                 (UTC) (F)     (DEG/KT/KT) (MB)    (FT/S)
DEVILS ISLAND    0400   22        CALM     1016.8F
SAXON HARBOR     0340   16                 1015.9S
$$

LMZ867-665-643>646-110500-
LAKE MICHIGAN

STATION/POSITION TIME  TEMP    WIND        PRES    WAVE
                       AIR SEA DIR/SP/G            HT/PER
                 (UTC) (F)     (DEG/KT/KT) (MB)    (FT/S)
NORTHPORT PIER   0340   20     330/ 12/ 16 1017.6S
KEWAUNEE LAKESHO 0348   20     330/  2/  4 1016.6F
SHEBOYGAN LAKESH 0400   26     320/  7/  9 1018.4F
PORT WASHINGTON  0340   27     320/  3/  6 1019.0S
MILWAUKEE LAKESH 0350   28     310/  5/  9   N/A
KENOSHA   LAKESH 0400   28     330/  6/  8 1018.6
$$

TC  - TEMPERATURE IN CELSIUS
VSB - VISIBILITY IN STATUTE MILES
WCI - WIND CHILL INDEX
HX  - HEAT INDEX





USA.gov is the U.S. government's official web portal to all federal, state and local government web resources and services.